Find Starlink 35278

NORAD ID: 65902 Int'l Des: 2025-224 Owner: SPXS Country: US Constellation: starlink operational
LEOCIRCULAR

現在のビュー

3D地球を読み込み中...

About Starlink 35278

Starlink 35278 (NORAD 65902) is a starlink constellation satellite (v2 mini) launched Oct 7, 2025 by SPXS of US. It operates in LEO, CIRCULAR orbit with a mass of 575.00 kg.

次回通過

Passes for default location (London). Set your location on the main map for personalized predictions.

高度履歴

Loading altitude history...

軌道要素

1 65902U 25224W 26265.06074913 .00013018 00000-0 39574-3 0 9992
2 65902 53.1577 178.2223 0001308 97.9168 262.1983 15.34400109 54950
Epoch: Sep 22, 2026 • Age: 18 hours

現在のステータス

高度 472.2 km
遠地点 / 近地点 N/A
速度 7.63 km/s
衛星直下点 -29.88°S, 84.35°E
打ち上げ日 Oct 7, 2025
運用期間 0.9 years
タイプ internet

技術仕様

分類 Payload
質量 575.00 kg
乾燥質量 530.00 kg
長さ 0.30 m
スパン 29.00 m
形状 ? Box + pan
製造者 SPXS
バスタイプ Starlink V2MO
フェーズステータス In Orbit
所有者/国 SPXS/US

Most Searched